カタログに戻る

SL-8 R/B

運用中LEO
NORAD 8897·ROCKET BODY·🇷🇺 Russia

打ち上げ Jun 15, 1976 から Plesetsk Cosmodrome

Loading…

次のパス (今後24時間)

TLE

最新Source: Space-Track

元期: Sep 14, 2026, 18:11 UTC

1 08897U 76054J   26257.75789162 -.00000045  00000-0 -29232-3 0  9993
2 08897  74.0011  10.7445 0124775 117.2707  49.2818 12.21068520240004

AllMySatでSL-8 R/Bをリアルタイム追跡

Download on the App Store